User: anonymous   Login
Location: Auckland
(36.8670°S, 174.7670°E)
Time: 20:49:46
(UTC+12:00)
Language:

Explorer 11/Cluster Stage 4 - Orbit

View from above orbital plane
View from above orbital plane
View from above satellite
View from above satellite

Ground track
Ground track

The orbit data is extracted from the following two-line orbital elements,

1   107U 61013A   19236.87966711 +.00000244 +00000-0 +98166-5 0  9990
2   107 028.7917 061.8739 0547328 257.2382 096.6502 14.08818841924226
Epoch (UTC): 24 August 2019 21:06:43
Eccentricity: 0.0547328
inclination: 28.7917°
perigee height: 467 km
apogee height: 1260 km
right ascension of ascending node: 61.8739°
argument of perigee: 257.2382°
revolutions per day: 14.08818841
mean anomaly at epoch: 96.6502°
orbit number at epoch: 92422

The dashed part of the orbit path shows where the satellite is in the earth's shadow,  

DLR